contact:dominique.lefevre@mio.osupytheas.fr, maurice.libes@osupytheas.fr, didier.mallarino@osupytheas.fr
Project:EMSO http://www.emso-fr.org/EMSO-France
Depth: 2436.0 m
Title:EMSO Ligure Ouest : Data MII capteur MICROCAT
DateTime_Computer,Latitude,Longitude,Temperature,Conductivity,Pressure,DateTime_Instrument
DateTime_Computer,Latitude,Longitude,degC,S m-1,dbar,DateTime_Instrument
2023-06-10T00:01:30Z,42.805,6.029,13.3026,4.60085,2470.833,2023-6-10T02:03:44Z
2023-06-10T00:04:33Z,42.805,6.029,13.3025,4.60086,2470.833,2023-6-10T02:06:47Z
2023-06-10T00:07:36Z,42.805,6.029,13.3029,4.60086,2470.894,2023-6-10T02:09:50Z
2023-06-10T00:10:39Z,42.805,6.029,13.3020,4.60085,2470.857,2023-6-10T02:12:53Z
2023-06-10T00:13:42Z,42.805,6.029,13.3027,4.60088,2470.88,2023-6-10T02:15:56Z
2023-06-10T00:16:46Z,42.805,6.029,13.3026,4.60084,2470.857,2023-6-10T02:18:59Z
2023-06-10T00:19:49Z,42.805,6.029,13.3024,4.60086,2470.871,2023-6-10T02:22:02Z
2023-06-10T00:22:52Z,42.805,6.029,13.3025,4.60093,2470.847,2023-6-10T02:25:05Z
2023-06-10T00:25:55Z,42.805,6.029,13.3022,4.60084,2470.847,2023-6-10T02:28:08Z
2023-06-10T00:28:58Z,42.805,6.029,13.3025,4.60084,2470.857,2023-6-10T02:31:12Z
2023-06-10T00:32:01Z,42.805,6.029,13.3023,4.60084,2470.81,2023-6-10T02:34:15Z
2023-06-10T00:35:04Z,42.805,6.029,13.3026,4.60085,2470.847,2023-6-10T02:37:18Z
2023-06-10T00:38:07Z,42.805,6.029,13.3024,4.60087,2470.833,2023-6-10T02:40:21Z
2023-06-10T00:41:10Z,42.805,6.029,13.3024,4.60089,2470.82,2023-6-10T02:43:24Z
2023-06-10T00:44:13Z,42.805,6.029,13.3025,4.60085,2470.871,2023-6-10T02:46:27Z
2023-06-10T00:47:16Z,42.805,6.029,13.3024,4.60088,2470.847,2023-6-10T02:49:30Z
2023-06-10T00:50:19Z,42.805,6.029,13.3025,4.60085,2470.833,2023-6-10T02:52:33Z
2023-06-10T00:53:23Z,42.805,6.029,13.3025,4.60086,2470.857,2023-6-10T02:55:36Z
2023-06-10T00:56:26Z,42.805,6.029,13.3025,4.60085,2470.833,2023-6-10T02:58:39Z
2023-06-10T00:59:29Z,42.805,6.029,13.3022,4.60084,2470.857,2023-6-10T03:01:42Z
2023-06-10T01:02:32Z,42.805,6.029,13.3029,4.60086,2470.871,2023-6-10T03:04:45Z
2023-06-10T01:05:35Z,42.805,6.029,13.3022,4.60090,2470.833,2023-6-10T03:07:49Z
2023-06-10T01:08:38Z,42.805,6.029,13.3027,4.60088,2470.857,2023-6-10T03:10:52Z
2023-06-10T01:11:41Z,42.805,6.029,13.3026,4.60086,2470.824,2023-6-10T03:13:55Z
2023-06-10T01:14:44Z,42.805,6.029,13.3028,4.60087,2470.833,2023-6-10T03:16:58Z
2023-06-10T01:17:47Z,42.805,6.029,13.3027,4.60084,2470.833,2023-6-10T03:20:01Z
2023-06-10T01:20:50Z,42.805,6.029,13.3024,4.60084,2470.81,2023-6-10T03:23:04Z
2023-06-10T01:23:53Z,42.805,6.029,13.3022,4.60086,2470.847,2023-6-10T03:26:07Z
2023-06-10T01:26:56Z,42.805,6.029,13.3024,4.60085,2470.833,2023-6-10T03:29:10Z
2023-06-10T01:30:00Z,42.805,6.029,13.3027,4.60084,2470.833,2023-6-10T03:32:13Z
2023-06-10T01:33:03Z,42.805,6.029,13.3026,4.60084,2470.81,2023-6-10T03:35:16Z
2023-06-10T01:36:06Z,42.805,6.029,13.3023,4.60084,2470.787,2023-6-10T03:38:19Z
2023-06-10T01:39:09Z,42.805,6.029,13.3017,4.60088,2470.857,2023-6-10T03:41:22Z
2023-06-10T01:42:12Z,42.805,6.029,13.3028,4.60085,2470.8,2023-6-10T03:44:26Z
2023-06-10T01:45:15Z,42.805,6.029,13.3024,4.60086,2470.833,2023-6-10T03:47:29Z
2023-06-10T01:48:18Z,42.805,6.029,13.3026,4.60086,2470.81,2023-6-10T03:50:32Z
2023-06-10T01:51:21Z,42.805,6.029,13.3024,4.60085,2470.833,2023-6-10T03:53:35Z
2023-06-10T01:54:24Z,42.805,6.029,13.3026,4.60084,2470.81,2023-6-10T03:56:38Z
2023-06-10T01:57:27Z,42.805,6.029,13.3026,4.60084,2470.847,2023-6-10T03:59:41Z
2023-06-10T02:00:30Z,42.805,6.029,13.3021,4.60085,2470.81,2023-6-10T04:02:44Z
2023-06-10T02:03:33Z,42.805,6.029,13.3025,4.60084,2470.833,2023-6-10T04:05:47Z
2023-06-10T02:06:37Z,42.805,6.029,13.3026,4.60084,2470.833,2023-6-10T04:08:50Z
2023-06-10T02:09:40Z,42.805,6.029,13.3019,4.60086,2470.847,2023-6-10T04:11:53Z
2023-06-10T02:12:43Z,42.805,6.029,13.3024,4.60085,2470.81,2023-6-10T04:14:56Z
2023-06-10T02:15:46Z,42.805,6.029,13.3024,4.60084,2470.833,2023-6-10T04:17:59Z
2023-06-10T02:18:49Z,42.805,6.029,13.3024,4.60084,2470.824,2023-6-10T04:21:03Z
2023-06-10T02:21:52Z,42.805,6.029,13.3028,4.60082,2470.8,2023-6-10T04:24:06Z
2023-06-10T02:24:55Z,42.805,6.029,13.3028,4.60083,2470.81,2023-6-10T04:27:09Z
2023-06-10T02:27:58Z,42.805,6.029,13.3026,4.60084,2470.777,2023-6-10T04:30:12Z
2023-06-10T02:31:01Z,42.805,6.029,13.3028,4.60084,2470.8,2023-6-10T04:33:15Z
2023-06-10T02:34:04Z,42.805,6.029,13.3029,4.60084,2470.824,2023-6-10T04:36:18Z
2023-06-10T02:37:07Z,42.805,6.029,13.3026,4.60084,2470.81,2023-6-10T04:39:21Z
2023-06-10T02:40:10Z,42.805,6.029,13.3026,4.60084,2470.8,2023-6-10T04:42:24Z
2023-06-10T02:43:14Z,42.805,6.029,13.3025,4.60084,2470.787,2023-6-10T04:45:27Z
2023-06-10T02:46:17Z,42.805,6.029,13.3026,4.60084,2470.787,2023-6-10T04:48:30Z
2023-06-10T02:49:20Z,42.805,6.029,13.3026,4.60083,2470.763,2023-6-10T04:51:33Z
2023-06-10T02:52:23Z,42.805,6.029,13.3029,4.60084,2470.8,2023-6-10T04:54:36Z
2023-06-10T02:55:26Z,42.805,6.029,13.3023,4.60084,2470.777,2023-6-10T04:57:40Z
2023-06-10T02:58:29Z,42.805,6.029,13.3025,4.60084,2470.763,2023-6-10T05:00:43Z
2023-06-10T03:01:32Z,42.805,6.029,13.3025,4.60084,2470.787,2023-6-10T05:03:46Z
2023-06-10T03:04:35Z,42.805,6.029,13.3028,4.60084,2470.8,2023-6-10T05:06:49Z
2023-06-10T03:07:38Z,42.805,6.029,13.3027,4.60084,2470.74,2023-6-10T05:09:52Z
2023-06-10T03:10:41Z,42.805,6.029,13.3021,4.60084,2470.777,2023-6-10T05:12:55Z
2023-06-10T03:13:44Z,42.805,6.029,13.3024,4.60084,2470.763,2023-6-10T05:15:58Z
2023-06-10T03:16:47Z,42.805,6.029,13.3022,4.60083,2470.74,2023-6-10T05:19:01Z
2023-06-10T03:19:51Z,42.805,6.029,13.3026,4.60084,2470.754,2023-6-10T05:22:04Z
2023-06-10T03:22:54Z,42.805,6.029,13.3024,4.60084,2470.74,2023-6-10T05:25:07Z
2023-06-10T03:25:57Z,42.805,6.029,13.3026,4.60083,2470.787,2023-6-10T05:28:10Z
2023-06-10T03:29:00Z,42.805,6.029,13.3024,4.60085,2470.754,2023-6-10T05:31:13Z
2023-06-10T03:32:03Z,42.805,6.029,13.3024,4.60084,2470.74,2023-6-10T05:34:17Z
2023-06-10T03:35:06Z,42.805,6.029,13.3024,4.60085,2470.763,2023-6-10T05:37:20Z
2023-06-10T03:38:09Z,42.805,6.029,13.3026,4.60084,2470.754,2023-6-10T05:40:23Z
2023-06-10T03:41:12Z,42.805,6.029,13.3025,4.60085,2470.717,2023-6-10T05:43:26Z
2023-06-10T03:44:15Z,42.805,6.029,13.3021,4.60084,2470.74,2023-6-10T05:46:29Z
2023-06-10T03:47:18Z,42.805,6.029,13.3024,4.60085,2470.763,2023-6-10T05:49:32Z
2023-06-10T03:50:21Z,42.805,6.029,13.3024,4.60084,2470.74,2023-6-10T05:52:35Z
2023-06-10T03:53:24Z,42.805,6.029,13.3026,4.60084,2470.763,2023-6-10T05:55:38Z
2023-06-10T03:56:28Z,42.805,6.029,13.3024,4.60084,2470.74,2023-6-10T05:58:41Z
2023-06-10T03:59:31Z,42.805,6.029,13.3022,4.60084,2470.763,2023-6-10T06:01:44Z
2023-06-10T04:02:34Z,42.805,6.029,13.3023,4.60081,2470.726,2023-6-10T06:04:47Z
2023-06-10T04:05:37Z,42.805,6.029,13.3024,4.60083,2470.777,2023-6-10T06:07:50Z
2023-06-10T04:08:40Z,42.805,6.029,13.3024,4.60081,2470.74,2023-6-10T06:10:54Z
2023-06-10T04:11:43Z,42.805,6.029,13.3020,4.60080,2470.763,2023-6-10T06:13:57Z
2023-06-10T04:14:46Z,42.805,6.029,13.3027,4.60081,2470.73,2023-6-10T06:17:00Z
2023-06-10T04:17:49Z,42.805,6.029,13.3024,4.60080,2470.74,2023-6-10T06:20:03Z
2023-06-10T04:20:52Z,42.805,6.029,13.3021,4.60082,2470.74,2023-6-10T06:23:06Z
2023-06-10T04:23:55Z,42.805,6.029,13.3024,4.60083,2470.74,2023-6-10T06:26:09Z
2023-06-10T04:26:58Z,42.805,6.029,13.3021,4.60082,2470.74,2023-6-10T06:29:12Z
2023-06-10T04:30:01Z,42.805,6.029,13.3022,4.60081,2470.693,2023-6-10T06:32:15Z
2023-06-10T04:33:03Z,42.805,6.029,13.3021,4.60080,2470.703,2023-6-10T06:35:17Z
2023-06-10T04:36:06Z,42.805,6.029,13.3025,4.60084,2470.717,2023-6-10T06:38:20Z
2023-06-10T04:39:09Z,42.805,6.029,13.3019,4.60080,2470.73,2023-6-10T06:41:23Z
2023-06-10T04:42:12Z,42.805,6.029,13.3021,4.60081,2470.717,2023-6-10T06:44:26Z
2023-06-10T04:45:15Z,42.805,6.029,13.3024,4.60078,2470.73,2023-6-10T06:47:29Z
2023-06-10T04:48:18Z,42.805,6.029,13.3020,4.60079,2470.67,2023-6-10T06:50:32Z
2023-06-10T04:51:22Z,42.805,6.029,13.3023,4.60081,2470.717,2023-6-10T06:53:35Z
2023-06-10T04:54:25Z,42.805,6.029,13.3026,4.60081,2470.707,2023-6-10T06:56:38Z
2023-06-10T04:57:28Z,42.805,6.029,13.3019,4.60079,2470.73,2023-6-10T06:59:41Z
2023-06-10T05:00:31Z,42.805,6.029,13.3024,4.60079,2470.693,2023-6-10T07:02:44Z
2023-06-10T05:03:34Z,42.805,6.029,13.3023,4.60080,2470.754,2023-6-10T07:05:48Z
2023-06-10T05:06:37Z,42.805,6.029,13.3022,4.60081,2470.717,2023-6-10T07:08:51Z
2023-06-10T05:09:40Z,42.805,6.029,13.3025,4.60079,2470.717,2023-6-10T07:11:54Z
2023-06-10T05:12:43Z,42.805,6.029,13.3023,4.60079,2470.703,2023-6-10T07:14:57Z
2023-06-10T05:15:46Z,42.805,6.029,13.3016,4.60079,2470.717,2023-6-10T07:18:00Z
2023-06-10T05:18:49Z,42.805,6.029,13.3022,4.60079,2470.661,2023-6-10T07:21:03Z
2023-06-10T05:21:52Z,42.805,6.029,13.3021,4.60081,2470.67,2023-6-10T07:24:06Z
2023-06-10T05:24:55Z,42.805,6.029,13.3022,4.60084,2470.707,2023-6-10T07:27:09Z
2023-06-10T05:27:58Z,42.805,6.029,13.3023,4.60080,2470.693,2023-6-10T07:30:12Z
2023-06-10T05:31:02Z,42.805,6.029,13.3021,4.60079,2470.693,2023-6-10T07:33:15Z
2023-06-10T05:34:05Z,42.805,6.029,13.3023,4.60079,2470.656,2023-6-10T07:36:18Z
2023-06-10T05:37:08Z,42.805,6.029,13.3024,4.60079,2470.67,2023-6-10T07:39:21Z
2023-06-10T05:40:11Z,42.805,6.029,13.3023,4.60079,2470.684,2023-6-10T07:42:25Z
2023-06-10T05:43:14Z,42.805,6.029,13.3022,4.60080,2470.646,2023-6-10T07:45:28Z
2023-06-10T05:46:17Z,42.805,6.029,13.3019,4.60080,2470.693,2023-6-10T07:48:31Z
2023-06-10T05:49:20Z,42.805,6.029,13.3024,4.60079,2470.624,2023-6-10T07:51:34Z
2023-06-10T05:52:23Z,42.805,6.029,13.3020,4.60079,2470.67,2023-6-10T07:54:37Z
2023-06-10T05:55:26Z,42.805,6.029,13.3017,4.60079,2470.661,2023-6-10T07:57:40Z
2023-06-10T05:58:29Z,42.805,6.029,13.3019,4.60080,2470.693,2023-6-10T08:00:43Z
2023-06-10T06:01:32Z,42.805,6.029,13.3024,4.60081,2470.646,2023-6-10T08:03:46Z
2023-06-10T06:04:36Z,42.805,6.029,13.3022,4.60079,2470.646,2023-6-10T08:06:49Z
2023-06-10T06:07:39Z,42.805,6.029,13.3019,4.60078,2470.67,2023-6-10T08:09:52Z
2023-06-10T06:10:42Z,42.805,6.029,13.3022,4.60078,2470.67,2023-6-10T08:12:55Z
2023-06-10T06:13:45Z,42.805,6.029,13.3022,4.60078,2470.67,2023-6-10T08:15:58Z
2023-06-10T06:16:48Z,42.805,6.029,13.3020,4.60079,2470.67,2023-6-10T08:19:02Z
2023-06-10T06:19:51Z,42.805,6.029,13.3021,4.60081,2470.67,2023-6-10T08:22:05Z
2023-06-10T06:22:54Z,42.805,6.029,13.3022,4.60079,2470.67,2023-6-10T08:25:08Z
2023-06-10T06:25:57Z,42.805,6.029,13.3018,4.60077,2470.646,2023-6-10T08:28:11Z
2023-06-10T06:29:00Z,42.805,6.029,13.3022,4.60077,2470.67,2023-6-10T08:31:14Z
2023-06-10T06:32:02Z,42.805,6.029,13.3024,4.60077,2470.67,2023-6-10T08:34:15Z
2023-06-10T06:35:05Z,42.805,6.029,13.3022,4.60079,2470.67,2023-6-10T08:37:18Z
2023-06-10T06:38:08Z,42.805,6.029,13.3024,4.60079,2470.646,2023-6-10T08:40:21Z
2023-06-10T06:41:11Z,42.805,6.029,13.3022,4.60079,2470.646,2023-6-10T08:43:25Z
2023-06-10T06:44:14Z,42.805,6.029,13.3023,4.60079,2470.624,2023-6-10T08:46:28Z
2023-06-10T06:47:17Z,42.805,6.029,13.3019,4.60076,2470.646,2023-6-10T08:49:31Z
2023-06-10T06:50:20Z,42.805,6.029,13.3021,4.60076,2470.646,2023-6-10T08:52:34Z
2023-06-10T06:53:23Z,42.805,6.029,13.3017,4.60078,2470.684,2023-6-10T08:55:37Z
2023-06-10T06:56:26Z,42.805,6.029,13.3021,4.60079,2470.684,2023-6-10T08:58:40Z
2023-06-10T06:59:29Z,42.805,6.029,13.3021,4.60077,2470.646,2023-6-10T09:01:43Z
2023-06-10T07:02:32Z,42.805,6.029,13.3024,4.60077,2470.661,2023-6-10T09:04:46Z
2023-06-10T07:05:36Z,42.805,6.029,13.3019,4.60078,2470.661,2023-6-10T09:07:49Z
2023-06-10T07:08:39Z,42.805,6.029,13.3017,4.60078,2470.67,2023-6-10T09:10:52Z
2023-06-10T07:11:42Z,42.805,6.029,13.3019,4.60078,2470.624,2023-6-10T09:13:55Z
2023-06-10T07:14:45Z,42.805,6.029,13.3020,4.60077,2470.646,2023-6-10T09:16:59Z
2023-06-10T07:17:48Z,42.805,6.029,13.3023,4.60077,2470.661,2023-6-10T09:20:02Z
2023-06-10T07:20:51Z,42.805,6.029,13.3023,4.60076,2470.624,2023-6-10T09:23:05Z
2023-06-10T07:23:54Z,42.805,6.029,13.3019,4.60077,2470.646,2023-6-10T09:26:08Z
2023-06-10T07:26:57Z,42.805,6.029,13.3019,4.60077,2470.637,2023-6-10T09:29:11Z
2023-06-10T07:30:00Z,42.805,6.029,13.3020,4.60076,2470.646,2023-6-10T09:32:14Z
2023-06-10T07:33:03Z,42.805,6.029,13.3022,4.60079,2470.646,2023-6-10T09:35:17Z
2023-06-10T07:36:06Z,42.805,6.029,13.3020,4.60077,2470.646,2023-6-10T09:38:20Z
2023-06-10T07:39:10Z,42.805,6.029,13.3023,4.60077,2470.637,2023-6-10T09:41:23Z
2023-06-10T07:42:13Z,42.805,6.029,13.3019,4.60076,2470.661,2023-6-10T09:44:26Z
2023-06-10T07:45:16Z,42.805,6.029,13.3022,4.60077,2470.646,2023-6-10T09:47:29Z
2023-06-10T07:48:19Z,42.805,6.029,13.3022,4.60077,2470.624,2023-6-10T09:50:32Z
2023-06-10T07:51:22Z,42.805,6.029,13.3023,4.60076,2470.624,2023-6-10T09:53:36Z
2023-06-10T07:54:25Z,42.805,6.029,13.3021,4.60076,2470.624,2023-6-10T09:56:39Z
2023-06-10T07:57:28Z,42.805,6.029,13.3021,4.60076,2470.624,2023-6-10T09:59:42Z
2023-06-10T08:00:31Z,42.805,6.029,13.3020,4.60076,2470.624,2023-6-10T10:02:45Z
2023-06-10T08:03:34Z,42.805,6.029,13.3020,4.60077,2470.661,2023-6-10T10:05:48Z
2023-06-10T08:06:37Z,42.805,6.029,13.3019,4.60077,2470.637,2023-6-10T10:08:51Z
2023-06-10T08:09:40Z,42.805,6.029,13.3022,4.60076,2470.624,2023-6-10T10:11:54Z
2023-06-10T08:12:43Z,42.805,6.029,13.3019,4.60076,2470.661,2023-6-10T10:14:57Z
2023-06-10T08:15:47Z,42.805,6.029,13.3021,4.60077,2470.646,2023-6-10T10:18:00Z
2023-06-10T08:18:50Z,42.805,6.029,13.3022,4.60075,2470.67,2023-6-10T10:21:03Z
2023-06-10T08:21:53Z,42.805,6.029,13.3020,4.60075,2470.646,2023-6-10T10:24:06Z
2023-06-10T08:24:56Z,42.805,6.029,13.3021,4.60076,2470.646,2023-6-10T10:27:09Z
2023-06-10T08:27:59Z,42.805,6.029,13.3021,4.60076,2470.661,2023-6-10T10:30:13Z
2023-06-10T08:31:02Z,42.805,6.029,13.3021,4.60077,2470.637,2023-6-10T10:33:16Z
2023-06-10T08:34:05Z,42.805,6.029,13.3021,4.60079,2470.646,2023-6-10T10:36:19Z
2023-06-10T08:37:08Z,42.805,6.029,13.3021,4.60076,2470.637,2023-6-10T10:39:22Z
2023-06-10T08:40:11Z,42.805,6.029,13.3019,4.60076,2470.646,2023-6-10T10:42:25Z
2023-06-10T08:43:14Z,42.805,6.029,13.3022,4.60076,2470.646,2023-6-10T10:45:28Z
2023-06-10T08:46:17Z,42.805,6.029,13.3019,4.60076,2470.67,2023-6-10T10:48:31Z
2023-06-10T08:49:20Z,42.805,6.029,13.3019,4.60075,2470.646,2023-6-10T10:51:34Z
2023-06-10T08:52:24Z,42.805,6.029,13.3022,4.60075,2470.637,2023-6-10T10:54:37Z
2023-06-10T08:55:27Z,42.805,6.029,13.3017,4.60076,2470.693,2023-6-10T10:57:40Z
2023-06-10T08:58:30Z,42.805,6.029,13.3016,4.60079,2470.646,2023-6-10T11:00:43Z
2023-06-10T09:01:33Z,42.805,6.029,13.3017,4.60076,2470.646,2023-6-10T11:03:47Z
2023-06-10T09:04:36Z,42.805,6.029,13.3022,4.60075,2470.684,2023-6-10T11:06:50Z
2023-06-10T09:07:39Z,42.805,6.029,13.3019,4.60077,2470.646,2023-6-10T11:09:53Z
2023-06-10T09:10:42Z,42.805,6.029,13.3019,4.60076,2470.67,2023-6-10T11:12:56Z
2023-06-10T09:13:45Z,42.805,6.029,13.3019,4.60076,2470.646,2023-6-10T11:15:59Z
2023-06-10T09:16:48Z,42.805,6.029,13.3020,4.60076,2470.637,2023-6-10T11:19:02Z
2023-06-10T09:19:51Z,42.805,6.029,13.3017,4.60077,2470.633,2023-6-10T11:22:05Z
2023-06-10T09:22:54Z,42.805,6.029,13.3021,4.60076,2470.67,2023-6-10T11:25:08Z
2023-06-10T09:25:58Z,42.805,6.029,13.3023,4.60077,2470.624,2023-6-10T11:28:11Z
2023-06-10T09:29:01Z,42.805,6.029,13.3020,4.60076,2470.646,2023-6-10T11:31:14Z
2023-06-10T09:32:04Z,42.805,6.029,13.3022,4.60075,2470.67,2023-6-10T11:34:17Z
2023-06-10T09:35:07Z,42.805,6.029,13.3019,4.60077,2470.67,2023-6-10T11:37:21Z
2023-06-10T09:38:10Z,42.805,6.029,13.3021,4.60077,2470.646,2023-6-10T11:40:24Z
2023-06-10T09:41:13Z,42.805,6.029,13.3019,4.60077,2470.693,2023-6-10T11:43:27Z
2023-06-10T09:44:16Z,42.805,6.029,13.3016,4.60076,2470.684,2023-6-10T11:46:30Z
2023-06-10T09:47:19Z,42.805,6.029,13.3021,4.60076,2470.693,2023-6-10T11:49:33Z
2023-06-10T09:50:22Z,42.805,6.029,13.3019,4.60076,2470.67,2023-6-10T11:52:36Z
2023-06-10T09:53:25Z,42.805,6.029,13.3019,4.60077,2470.67,2023-6-10T11:55:39Z
2023-06-10T09:56:28Z,42.805,6.029,13.3018,4.60077,2470.693,2023-6-10T11:58:42Z
2023-06-10T09:59:32Z,42.805,6.029,13.3019,4.60076,2470.693,2023-6-10T12:01:45Z
2023-06-10T10:02:35Z,42.805,6.029,13.3017,4.60076,2470.661,2023-6-10T12:04:48Z
2023-06-10T10:05:38Z,42.805,6.029,13.3019,4.60074,2470.67,2023-6-10T12:07:51Z
2023-06-10T10:08:41Z,42.805,6.029,13.3021,4.60078,2470.684,2023-6-10T12:10:55Z
2023-06-10T10:11:44Z,42.805,6.029,13.3019,4.60077,2470.646,2023-6-10T12:13:58Z
2023-06-10T10:14:47Z,42.805,6.029,13.3019,4.60076,2470.693,2023-6-10T12:17:01Z
2023-06-10T10:17:50Z,42.805,6.029,13.3020,4.60077,2470.693,2023-6-10T12:20:04Z
2023-06-10T10:20:53Z,42.805,6.029,13.3019,4.60077,2470.684,2023-6-10T12:23:07Z
2023-06-10T10:23:56Z,42.805,6.029,13.3020,4.60077,2470.693,2023-6-10T12:26:10Z
2023-06-10T10:26:59Z,42.805,6.029,13.3020,4.60077,2470.73,2023-6-10T12:29:13Z
2023-06-10T10:30:02Z,42.805,6.029,13.3016,4.60076,2470.73,2023-6-10T12:32:16Z
2023-06-10T10:33:06Z,42.805,6.029,13.3019,4.60076,2470.693,2023-6-10T12:35:19Z
2023-06-10T10:36:09Z,42.805,6.029,13.3022,4.60075,2470.693,2023-6-10T12:38:22Z
2023-06-10T10:39:12Z,42.805,6.029,13.3021,4.60076,2470.693,2023-6-10T12:41:25Z
2023-06-10T10:42:15Z,42.805,6.029,13.3019,4.60076,2470.717,2023-6-10T12:44:28Z
2023-06-10T10:45:18Z,42.805,6.029,13.3019,4.60076,2470.707,2023-6-10T12:47:32Z
2023-06-10T10:48:21Z,42.805,6.029,13.3024,4.60076,2470.707,2023-6-10T12:50:35Z
2023-06-10T10:51:24Z,42.805,6.029,13.3021,4.60077,2470.693,2023-6-10T12:53:38Z
2023-06-10T10:54:27Z,42.805,6.029,13.3021,4.60076,2470.693,2023-6-10T12:56:41Z
2023-06-10T10:57:30Z,42.805,6.029,13.3024,4.60077,2470.693,2023-6-10T12:59:44Z
2023-06-10T11:00:33Z,42.805,6.029,13.3019,4.60077,2470.67,2023-6-10T13:02:47Z
2023-06-10T11:03:36Z,42.805,6.029,13.3019,4.60077,2470.73,2023-6-10T13:05:50Z
2023-06-10T11:06:39Z,42.805,6.029,13.3021,4.60077,2470.717,2023-6-10T13:08:53Z
2023-06-10T11:09:43Z,42.805,6.029,13.3023,4.60077,2470.717,2023-6-10T13:11:56Z
2023-06-10T11:12:46Z,42.805,6.029,13.3022,4.60078,2470.73,2023-6-10T13:14:59Z
2023-06-10T11:15:49Z,42.805,6.029,13.3018,4.60078,2470.707,2023-6-10T13:18:02Z
2023-06-10T11:18:52Z,42.805,6.029,13.3017,4.60077,2470.684,2023-6-10T13:21:06Z
2023-06-10T11:21:55Z,42.805,6.029,13.3017,4.60075,2470.684,2023-6-10T13:24:09Z
2023-06-10T11:24:58Z,42.805,6.029,13.3019,4.60076,2470.693,2023-6-10T13:27:12Z
2023-06-10T11:28:01Z,42.805,6.029,13.3021,4.60077,2470.693,2023-6-10T13:30:15Z
2023-06-10T11:31:04Z,42.805,6.029,13.3023,4.60076,2470.67,2023-6-10T13:33:18Z
2023-06-10T11:34:07Z,42.805,6.029,13.3021,4.60076,2470.684,2023-6-10T13:36:21Z
2023-06-10T11:37:10Z,42.805,6.029,13.3021,4.60076,2470.693,2023-6-10T13:39:24Z
2023-06-10T11:40:13Z,42.805,6.029,13.3019,4.60074,2470.717,2023-6-10T13:42:27Z
2023-06-10T11:43:17Z,42.805,6.029,13.3018,4.60076,2470.754,2023-6-10T13:45:30Z
2023-06-10T11:46:20Z,42.805,6.029,13.3019,4.60078,2470.684,2023-6-10T13:48:33Z
2023-06-10T11:49:23Z,42.805,6.029,13.3020,4.60076,2470.754,2023-6-10T13:51:36Z
2023-06-10T11:52:26Z,42.805,6.029,13.3020,4.60076,2470.693,2023-6-10T13:54:40Z
2023-06-10T11:55:29Z,42.805,6.029,13.3018,4.60076,2470.717,2023-6-10T13:57:43Z
2023-06-10T11:58:32Z,42.805,6.029,13.3023,4.60077,2470.707,2023-6-10T14:00:46Z
2023-06-10T12:01:35Z,42.805,6.029,13.3020,4.60077,2470.717,2023-6-10T14:03:49Z
2023-06-10T12:04:38Z,42.805,6.029,13.3020,4.60076,2470.717,2023-6-10T14:06:52Z
2023-06-10T12:07:41Z,42.805,6.029,13.3019,4.60078,2470.707,2023-6-10T14:09:55Z
2023-06-10T12:10:44Z,42.805,6.029,13.3018,4.60076,2470.679,2023-6-10T14:12:58Z
2023-06-10T12:13:47Z,42.805,6.029,13.3021,4.60076,2470.73,2023-6-10T14:16:01Z
2023-06-10T12:16:51Z,42.805,6.029,13.3024,4.60077,2470.717,2023-6-10T14:19:04Z
2023-06-10T12:19:54Z,42.805,6.029,13.3017,4.60075,2470.693,2023-6-10T14:22:07Z
2023-06-10T12:22:57Z,42.805,6.029,13.3021,4.60078,2470.684,2023-6-10T14:25:10Z
2023-06-10T12:26:00Z,42.805,6.029,13.3020,4.60078,2470.707,2023-6-10T14:28:13Z
2023-06-10T12:29:03Z,42.805,6.029,13.3019,4.60078,2470.693,2023-6-10T14:31:17Z
2023-06-10T12:32:07Z,42.805,6.029,13.3021,4.60075,2470.693,2023-6-10T14:34:21Z
2023-06-10T12:35:10Z,42.805,6.029,13.3018,4.60076,2470.693,2023-6-10T14:37:24Z
2023-06-10T12:38:13Z,42.805,6.029,13.3020,4.60077,2470.74,2023-6-10T14:40:27Z
2023-06-10T12:41:16Z,42.805,6.029,13.3019,4.60077,2470.679,2023-6-10T14:43:30Z
2023-06-10T12:44:19Z,42.805,6.029,13.3020,4.60079,2470.693,2023-6-10T14:46:33Z
2023-06-10T12:47:22Z,42.805,6.029,13.3015,4.60077,2470.717,2023-6-10T14:49:36Z
2023-06-10T12:50:25Z,42.805,6.029,13.3022,4.60078,2470.693,2023-6-10T14:52:39Z
2023-06-10T12:53:29Z,42.805,6.029,13.3018,4.60077,2470.707,2023-6-10T14:55:42Z
2023-06-10T12:56:32Z,42.805,6.029,13.3021,4.60076,2470.693,2023-6-10T14:58:45Z
2023-06-10T12:59:35Z,42.805,6.029,13.3019,4.60076,2470.74,2023-6-10T15:01:48Z
2023-06-10T13:02:38Z,42.805,6.029,13.3021,4.60076,2470.693,2023-6-10T15:04:52Z
2023-06-10T13:05:41Z,42.805,6.029,13.3017,4.60076,2470.717,2023-6-10T15:07:55Z
2023-06-10T13:08:44Z,42.805,6.029,13.3021,4.60077,2470.67,2023-6-10T15:10:58Z
2023-06-10T13:11:47Z,42.805,6.029,13.3019,4.60075,2470.67,2023-6-10T15:14:01Z
2023-06-10T13:14:50Z,42.805,6.029,13.3018,4.60077,2470.693,2023-6-10T15:17:04Z
2023-06-10T13:17:53Z,42.805,6.029,13.3019,4.60075,2470.707,2023-6-10T15:20:07Z
2023-06-10T13:20:56Z,42.805,6.029,13.3016,4.60076,2470.693,2023-6-10T15:23:10Z
2023-06-10T13:23:59Z,42.805,6.029,13.3020,4.60075,2470.67,2023-6-10T15:26:13Z
2023-06-10T13:27:02Z,42.805,6.029,13.3018,4.60076,2470.693,2023-6-10T15:29:16Z
2023-06-10T13:30:06Z,42.805,6.029,13.3019,4.60077,2470.684,2023-6-10T15:32:19Z
2023-06-10T13:33:09Z,42.805,6.029,13.3019,4.60077,2470.67,2023-6-10T15:35:22Z
2023-06-10T13:36:12Z,42.805,6.029,13.3019,4.60077,2470.693,2023-6-10T15:38:25Z
2023-06-10T13:39:15Z,42.805,6.029,13.3020,4.60076,2470.67,2023-6-10T15:41:29Z
2023-06-10T13:42:18Z,42.805,6.029,13.3019,4.60076,2470.707,2023-6-10T15:44:32Z
2023-06-10T13:45:21Z,42.805,6.029,13.3023,4.60077,2470.684,2023-6-10T15:47:35Z
2023-06-10T13:48:24Z,42.805,6.029,13.3020,4.60076,2470.693,2023-6-10T15:50:38Z
2023-06-10T13:51:27Z,42.805,6.029,13.3015,4.60076,2470.646,2023-6-10T15:53:41Z
2023-06-10T13:54:30Z,42.805,6.029,13.3020,4.60076,2470.693,2023-6-10T15:56:44Z
2023-06-10T13:57:33Z,42.805,6.029,13.3018,4.60076,2470.707,2023-6-10T15:59:47Z
2023-06-10T14:00:36Z,42.805,6.029,13.3017,4.60076,2470.67,2023-6-10T16:02:50Z
2023-06-10T14:03:39Z,42.805,6.029,13.3020,4.60077,2470.707,2023-6-10T16:05:53Z
2023-06-10T14:06:43Z,42.805,6.029,13.3021,4.60078,2470.693,2023-6-10T16:08:56Z
2023-06-10T14:09:46Z,42.805,6.029,13.3024,4.60079,2470.693,2023-6-10T16:11:59Z
2023-06-10T14:12:49Z,42.805,6.029,13.3018,4.60076,2470.693,2023-6-10T16:15:02Z
2023-06-10T14:15:52Z,42.805,6.029,13.3023,4.60075,2470.707,2023-6-10T16:18:06Z
2023-06-10T14:18:55Z,42.805,6.029,13.3015,4.60075,2470.707,2023-6-10T16:21:09Z
2023-06-10T14:21:58Z,42.805,6.029,13.3020,4.60078,2470.693,2023-6-10T16:24:12Z
2023-06-10T14:25:01Z,42.805,6.029,13.3021,4.60075,2470.67,2023-6-10T16:27:15Z
2023-06-10T14:28:04Z,42.805,6.029,13.3020,4.60079,2470.693,2023-6-10T16:30:18Z
2023-06-10T14:31:06Z,42.805,6.029,13.3020,4.60077,2470.707,2023-6-10T16:33:19Z
2023-06-10T14:34:09Z,42.805,6.029,13.3015,4.60078,2470.67,2023-6-10T16:36:22Z
2023-06-10T14:37:12Z,42.805,6.029,13.3019,4.60077,2470.67,2023-6-10T16:39:25Z
2023-06-10T14:40:15Z,42.805,6.029,13.3019,4.60077,2470.67,2023-6-10T16:42:29Z
2023-06-10T14:43:18Z,42.805,6.029,13.3019,4.60078,2470.707,2023-6-10T16:45:32Z
2023-06-10T14:46:21Z,42.805,6.029,13.3018,4.60076,2470.67,2023-6-10T16:48:35Z
2023-06-10T14:49:24Z,42.805,6.029,13.3020,4.60076,2470.693,2023-6-10T16:51:38Z
2023-06-10T14:52:27Z,42.805,6.029,13.3019,4.60077,2470.684,2023-6-10T16:54:41Z
2023-06-10T14:55:30Z,42.805,6.029,13.3018,4.60077,2470.646,2023-6-10T16:57:44Z
2023-06-10T14:58:33Z,42.805,6.029,13.3019,4.60079,2470.693,2023-6-10T17:00:47Z
2023-06-10T15:01:36Z,42.805,6.029,13.3020,4.60077,2470.67,2023-6-10T17:03:50Z
2023-06-10T15:04:39Z,42.805,6.029,13.3019,4.60077,2470.646,2023-6-10T17:06:53Z
2023-06-10T15:07:43Z,42.805,6.029,13.3019,4.60078,2470.684,2023-6-10T17:09:56Z
2023-06-10T15:10:46Z,42.805,6.029,13.3019,4.60078,2470.707,2023-6-10T17:12:59Z